Regional Weather Roundup
Issued by NWS

Home | Current Version | Previous Version | Graphics & Text | Print | Product List | Glossary On
Versions: 1 2 3 4 5 6 7 8 9 10 11 12 13 14 15 16 17 18 19 20 21 22 23 24 25 26 27 28 29 30 31 32 33 34 35 36 37 38 39 40 41 42 43 44 45 46 47 48 49 50
000
ASUS45 KBOI 280310
RWRID
WEATHER ROUNDUP FOR IDAHO
NATIONAL WEATHER SERVICE BOISE ID
800 PM MST FRI FEB 27 2015

NOTE: "FAIR" INDICATES FEW OR NO CLOUDS BELOW 12000 FEET
WITH NO SIGNIFICANT WEATHER AND/OR OBSTRUCTIONS TO VISIBILITY

IDZ012-014-280400-
SOUTHWEST IDAHO


CITY           SKY/WX    TMP DP  RH WIND       PRES   REMARKS
BOISE          CLOUDY    43  30  60 SE7       29.64R
CALDWELL       CLOUDY    43  30  61 N6        29.66R
MOUNTAIN HOME  CLOUDY    43  33  67 SE15      29.65R
$$

IDZ016-017-280400-
SOUTHCENTRAL IDAHO


CITY           SKY/WX    TMP DP  RH WIND       PRES   REMARKS
BURLEY         CLOUDY    37  26  64 E12       29.69R WCI  29
JEROME         CLOUDY    39  27  62 NE16      29.67S WCI  30
TWIN FALLS     CLOUDY    40  28  62 E12       29.66S WCI  33
$$

IDZ019>023-280400-
SOUTHEAST IDAHO


CITY           SKY/WX    TMP DP  RH WIND       PRES   REMARKS
IDAHO FALLS    PTCLDY    27  23  85 NE3       29.74S
POCATELLO      CLEAR     29  23  78 NE7       29.73S WCI  22
REXBURG        CLEAR     26  22  84 E5        29.74S WCI  20
$$

IDZ006-010-011-018-031-032-280400-
CENTRAL IDAHO MOUNTAINS


CITY           SKY/WX    TMP DP  RH WIND       PRES   REMARKS
MCCALL         CLOUDY    31  24  75 NE3       29.63S
HAILEY         MOCLDY    30  25  80 CALM      29.70R
STANLEY          N/A     27  15  61 CALM      29.64S
SALMON         CLOUDY   N/A N/A N/A SE17      29.72F
CHALLIS        CLOUDY    34  21  59 N12       29.67R WCI  25
$$

IDZ002-004-006-007-026-280400-
NORTHERN IDAHO


CITY           SKY/WX    TMP DP  RH WIND       PRES   REMARKS
LEWISTON       MOCLDY    46  33  60 CALM      29.72R
LOWELL           N/A     39  32  76 CALM      29.75R
COEUR D`ALENE  PTCLDY    36  18  48 N15       29.84R WCI  26
MULLAN PASS    MOCLDY    18  11  74 VRB3      29.74S
$$


USA.gov is the U.S. government's official web portal to all federal, state and local government web resources and services.